Regional Weather Roundup
Issued by NWS

Home | Current Version | Previous Version | Text Only | Print | Product List | Glossary On
Versions: 1 2 3 4 5 6 7 8 9 10 11 12 13 14 15 16 17 18 19 20 21 22 23 24 25 26 27 28 29 30 31 32 33 34 35 36 37 38 39 40 41 42 43 44 45 46 47 48 49 50
000
ASUS46 KSTO 222109
RWRCA

NORTHERN AND CENTRAL CA REGIONAL WEATHER ROUNDUP
NATIONAL WEATHER SERVICE SACRAMENTO CA
200 PM PDT MON SEP 22 2014

NOTE: FAIR INDICATES FEW OR NO CLOUDS BELOW 12,000 FEET WITH NO
SIGNIFICANT WEATHER AND/OR OBSTRUCTIONS TO VISIBILITY.

CAZ001-003-222200-
NORTHWEST AREA

CITY           SKY/WX    TMP DP  RH WIND       PRES   REMARKS
CRESCENT CITY  CLOUDY    67  55  65 S10       30.02F
ARCATA         NOT AVBL
SHELTER COVE   NOT AVBL
UKIAH          SUNNY     88  51  28 SW13      29.96F
$$

CAZ006-505>513-222200-
BAY AREA

CITY           SKY/WX    TMP DP  RH WIND       PRES   REMARKS
SANTA ROSA     MOSUNNY   81  56  42 SW5       29.97F
SAN RAFAEL     N/A       73  MM  MM MISG
NAPA           SUNNY     78  59  51 S12       29.97F
CONCORD        SUNNY     85  55  35 NW8       29.96F
OAKLAND CITY   N/A       73  MM  MM MISG
OAKLAND        MOSUNNY   73  56  54 W6        30.00F
SAN FRAN CITY  N/A       68  MM  66 MISG
SAN FRAN ARPT  MOSUNNY   77  58  51 W17       30.00F
LIVERMORE      SUNNY     81  54  39 SW6       29.97F
HAYWARD        SUNNY     77  56  48 W5        29.99F
REDWOOD CITY   N/A       MM  MM  MM MISG
MOFFETT ARPT   SUNNY     75  58  55 N5        30.00F
SAN JOSE ARPT  MOSUNNY   76  54  46 VRB6      29.99F
$$
CAZ034-037-514>518-222200-
CENTRAL COAST

CITY           SKY/WX    TMP DP  RH WIND       PRES   REMARKS
WATSONVILLE    SUNNY     76  59  55 SW7       30.00F
SALINAS        SUNNY     73  60  63 W12       29.98F
MONTEREY       SUNNY     69  57  65 W12       30.01F
PT PIEDRAS BLS NOT AVBL
SAN LUIS OBISP SUNNY     77  60  55 NW13      29.96F
SANTA MARIA    SUNNY     75  59  57 NW14      29.99F
$$
CAZ015-016-222200-
NORTHERN SACRAMENTO VALLEY

CITY           SKY/WX    TMP DP  RH WIND       PRES   REMARKS
REDDING        SUNNY     86  56  35 VRB7      29.92F
RED BLUFF      SUNNY     86  55  34 S8        29.94F
OROVILLE       SUNNY     84  58  40 VRB6      29.96F
$$
CAZ016>018-222200-
SOUTHERN SACRAMENTO VALLEY

CITY           SKY/WX    TMP DP  RH WIND       PRES   REMARKS
AUBURN         SUNNY     81  54  39 W5        30.01F
BEALE AFB      SUNNY     83  58  41 VRB6      29.94F SMOKE
LINCOLN        FAIR      81  52  36 CALM      29.95F
MARYSVILLE     SUNNY     82  57  42 VRB5      29.95F HAZE
SAC INTL ARPT  PTSUNNY   80  55  42 CALM      29.94F
MATHER AIRPORT MOSUNNY   82  57  42 SW5       29.95F
DOWNTOWN SAC   N/A       85  MM  MM MISG
SAC EXEC ARPT  SUNNY     83  58  42 CALM      29.95F
VACAVILLE      SUNNY     85  55  35 VRB3      29.96F
TRAVIS AFB     SUNNY     85  55  35 W7        29.94F
$$
CAZ019>021-222200-
SAN JOAQUIN VALLEY

CITY           SKY/WX    TMP DP  RH WIND       PRES   REMARKS
STOCKTON       SUNNY     83  57  41 W7        29.95F
MODESTO        SUNNY     83  57  41 NW8       29.95F
MERCED         SUNNY     85  56  37 NW8       29.95F
LEMOORE        SUNNY     86  55  34 NW6       29.94F
FRESNO         SUNNY     87  52  29 VRB6      29.94F
HANFORD        SUNNY     87  54  32 W6        29.94F
PORTERVILLE    SUNNY     84  55  37 SW3       29.96F
BAKERSFIELD    SUNNY     86  55  34 NW7       29.94F
$$
CAZ011-012-071-222200-
NORTHERN MOUNTAINS

CITY           SKY/WX    TMP DP  RH WIND       PRES   REMARKS
YREKA          MOSUNNY   84  45  25 S8        29.98F
MOUNT SHASTA   SUNNY     81  50  33 VRB5      30.05F
ALTURAS        SUNNY     80  48  32 W5        30.07F
$$
CAZ011-012-071-222200-
SIERRA NEVADA MTNS

CITY           SKY/WX    TMP DP  RH WIND       PRES   REMARKS
BLUE CANYON    CLOUDY    71  39  31 S8        30.21F HAZE
TRUCKEE        PTSUNNY   73  43  33 W5        30.20F
TAHOE VLY ARPT SUNNY     76  42  29 VRB6      30.21F
MAMMOTH LAKES  FAIR      75  36  23 E9        30.27F
$$




USA.gov is the U.S. government's official web portal to all federal, state and local government web resources and services.